Regional Weather Roundup
Issued by NWS

Home | Current Version | Previous Version | Graphics & Text | Print | Product List | Glossary On
Versions: 1 2 3 4 5 6 7 8 9 10 11 12 13 14 15 16 17 18 19 20 21 22 23 24 25 26 27 28 29 30 31 32 33 34 35 36 37 38 39 40 41 42 43 44 45 46 47 48 49 50
000
ASUS45 KABQ 260901
RWRNM
NEW MEXICO REGIONAL WEATHER ROUNDUP
NATIONAL WEATHER SERVICE ALBUQUERQUE NM
300 AM MDT TUE MAY 26 2015

NOTE: "FAIR" MEANS FEW OR NO CLOUDS BELOW 12,000 FEET AGL WITH NO
       SIGNIFICANT WEATHER OR OBSTRUCTIONS TO VISION.

      THIS PRODUCT IS RELEASED AS TWO VERSIONS.  ONE VERSION NEAR
      THE TOP OF THE HOUR CONTAINING PRELIMINARY DATA FROM ALBUQUERQUE
      AND OTHER STATIONS.  A FINAL VERSION WITH ADDITIONAL DATA IS
      ISSUED ABOUT 10 MINUTES AFTER THE HOUR.

NMZ501-503-504-510>518-261000-
NORTHWEST PLATEAU/NORTHCENTRAL MOUNTAINS

CITY           SKY/WX    TMP DP  RH WIND       PRES   REMARKS
FARMINGTON     CLEAR     42  40  92 NE6       30.06S
SANTA FE       CLEAR     41  37  86 N5        30.09R
TAOS           CLEAR     39  28  65 SE3       30.12S
ANGEL FIRE     FAIR      39  35  87 W7        30.16S WCI  34

$$
NMZ402-403-502-505>509-261000-
WESTCENTRAL MOUNTAINS/SOUTHWEST MOUNTAINS

CITY           SKY/WX    TMP DP  RH WIND       PRES   REMARKS
GALLUP         CLEAR     39  36  89 CALM      30.14S
GRANTS         CLEAR     37  35  93 CALM      30.15S
SILVER CITY      N/A     54  32  43 N10       30.10S

$$
NMZ407-409-411-412-261000-
SOUTHERN DESERTS

CITY           SKY/WX    TMP DP  RH WIND       PRES   REMARKS
LORDSBURG      FAIR      54  30  40 CALM      30.04F
DEMING         CLEAR     54  28  36 CALM      30.05R
HOLLOMAN AFB   CLEAR     57  39  51 NE6       30.00S
ALAMOGORDO     CLEAR     59  36  41 NE8       30.02R
T OR C         CLEAR     60  39  45 NW12      30.04F

$$
NMZ519>523-261000-
CENTRAL VALLEYS/CENTRAL HIGHLANDS

CITY           SKY/WX    TMP DP  RH WIND       PRES   REMARKS
ALBUQUERQUE    CLEAR     52  47  83 W5        30.08S
DOUBLE EAGLE   CLEAR     45  41  86 N3        30.10S
MORIARTY ARPT  FAIR      43  38  82 N5        30.10R
CLINES CORNERS CLEAR     44  39  82 NW14      30.08S
BELEN          FAIR      47  44  89 CALM      30.08S
SOCORRO        NOT AVBL

$$
NMZ524>526-539-540-261000-
SOUTHCENTRAL MOUNTAINS

CITY           SKY/WX    TMP DP  RH WIND       PRES   REMARKS
RUIDOSO        NOT AVBL

$$
NMZ527>531-261000-
NORTHEAST HIGHLANDS/NORTHEAST PLAINS

CITY           SKY/WX    TMP DP  RH WIND       PRES   REMARKS
LAS VEGAS      CLEAR     45  35  68 N6        30.06S
RATON          CLEAR     45  39  79 NE10      30.03R
CLAYTON        CLEAR     49  44  83 NW9       29.97S

$$
NMZ532>537-261000-
EASTCENTRAL PLAINS

CITY           SKY/WX    TMP DP  RH WIND       PRES   REMARKS
TUCUMCARI      PTCLDY    55  51  86 NW5       29.92S
CANNON AFB     NOT AVBL
CLOVIS AIRPORT PTCLDY    52  45  76 W12       29.94S

$$
NMZ028-029-538-261000-
SOUTHEAST PLAINS

CITY           SKY/WX    TMP DP  RH WIND       PRES   REMARKS
ROSWELL        CLEAR     62  42  47 W6        29.95S
ARTESIA        CLEAR     55  41  58 SW3       29.97S
CARLSBAD       CLEAR     55  44  66 W6        29.94S
HOBBS          CLEAR     52  48  87 W7        29.97S


$$


USA.gov is the U.S. government's official web portal to all federal, state and local government web resources and services.